User: anonymous   Login
Location: Unspecified
(0.0000°N, 0.0000°E)
Time: 03:44:06
(UTC+00:00)
Language:

NANOSAT C BR1 - Orbit

View from above orbital plane
View from above orbital plane
View from above satellite
View from above satellite

Ground track
Ground track

The orbit data is extracted from the following two-line orbital elements,

1 40024U 14033Q   19077.75764437  .00000283  00000-0  35420-4 0  9999
2 40024  97.9132 359.7129 0012373   3.5061 356.6241 14.89773976257754
Epoch (UTC): 18 March 2019 18:11:00
Eccentricity: 0.0012373
inclination: 97.9132°
perigee height: 590 km
apogee height: 607 km
right ascension of ascending node: 359.7129°
argument of perigee: 3.5061°
revolutions per day: 14.89773976
mean anomaly at epoch: 356.6241°
orbit number at epoch: 25775

The dashed part of the orbit path shows where the satellite is in the earth's shadow,  

DLR